Precipitable_Water
0.53 0.52 0.53 0.53 0.55 0.54 0.53 0.54 0.55 0.52 0.53 0.53 0.52 0.54 0.57 0.53 0.52 0.46 0.32 0.39 0.42 0.54 0.53 0.51 0.49 0.43 0.37 0.31 0.34 0.43 0.26 0.17 0.20 0.22 0.24 0.34 0.29 0.36 0.37 0.40 0.44 0.50 0.51 0.55 0.65
0.55 0.55 0.55 0.54 0.53 0.54 0.54 0.53 0.53 0.53 0.52 0.52 0.53 0.55 0.54 0.51 0.43 0.34 0.42 0.47 0.54 0.61 0.44 0.41 0.34 0.34 0.28 0.27 0.29 0.23 0.18 0.17 0.27 0.30 0.28 0.28 0.29 0.31 0.29 0.28 0.30 0.38 0.51 0.59 0.62
0.59 0.59 0.58 0.58 0.57 0.57 0.56 0.55 0.53 0.51 0.50 0.52 0.53 0.56 0.53 0.50 0.30 0.25 0.51 0.51 0.58 0.65 0.54 0.53 0.43 0.34 0.26 0.25 0.26 0.23 0.15 0.21 0.23 0.27 0.29 0.30 0.29 0.30 0.24 0.21 0.28 0.31 0.37 0.49 0.53
0.57 0.56 0.56 0.56 0.54 0.55 0.56 0.57 0.55 0.51 0.50 0.51 0.54 0.55 0.54 0.44 0.15 0.44 0.58 0.56 0.63 0.62 0.50 0.43 0.37 0.28 0.24 0.20 0.24 0.18 0.22 0.24 0.24 0.24 0.23 0.22 0.25 0.22 0.23 0.24 0.29 0.31 0.33 0.39 0.46
0.56 0.56 0.56 0.55 0.55 0.55 0.56 0.58 0.55 0.51 0.52 0.52 0.56 0.58 0.47 0.29 0.24 0.49 0.57 0.61 0.53 0.51 0.43 0.35 0.29 0.27 0.20 0.22 0.21 0.19 0.21 0.21 0.24 0.25 0.24 0.25 0.21 0.21 0.22 0.27 0.31 0.32 0.33 0.36 0.42
0.56 0.55 0.55 0.55 0.56 0.55 0.56 0.56 0.53 0.51 0.47 0.51 0.59 0.58 0.36 0.20 0.33 0.43 0.43 0.46 0.47 0.47 0.41 0.36 0.31 0.31 0.25 0.22 0.19 0.20 0.20 0.20 0.21 0.21 0.23 0.21 0.22 0.24 0.23 0.27 0.29 0.31 0.32 0.36 0.38
0.57 0.56 0.55 0.53 0.54 0.56 0.56 0.55 0.52 0.48 0.47 0.56 0.61 0.52 0.33 0.24 0.29 0.32 0.29 0.27 0.29 0.29 0.30 0.36 0.32 0.27 0.27 0.19 0.22 0.20 0.16 0.18 0.17 0.17 0.19 0.22 0.17 0.18 0.25 0.27 0.28 0.30 0.32 0.34 0.36
0.57 0.56 0.55 0.53 0.51 0.51 0.51 0.52 0.51 0.48 0.55 0.60 0.61 0.45 0.27 0.40 0.32 0.30 0.29 0.27 0.27 0.27 0.24 0.24 0.28 0.25 0.22 0.22 0.18 0.15 0.15 0.12 0.16 0.18 0.17 0.18 0.11 0.20 0.25 0.25 0.26 0.29 0.31 0.33 0.35
0.58 0.57 0.55 0.54 0.52 0.51 0.50 0.47 0.49 0.51 0.58 0.63 0.50 0.41 0.26 0.38 0.28 0.29 0.29 0.26 0.27 0.26 0.24 0.24 0.23 0.19 0.19 0.15 0.13 0.14 0.10 0.11 0.12 0.17 0.17 0.17 0.13 0.21 0.25 0.25 0.26 0.29 0.31 0.34 0.36
0.59 0.57 0.54 0.54 0.52 0.50 0.49 0.48 0.53 0.56 0.56 0.57 0.46 0.31 0.30 0.25 0.28 0.30 0.31 0.29 0.24 0.22 0.21 0.20 0.19 0.16 0.16 0.14 0.09 0.10 0.10 0.11 0.11 0.15 0.16 0.16 0.16 0.21 0.24 0.25 0.26 0.28 0.31 0.34 0.36
0.58 0.56 0.53 0.53 0.48 0.45 0.38 0.36 0.29 0.29 0.36 0.25 0.24 0.21 0.22 0.25 0.28 0.26 0.29 0.25 0.24 0.21 0.17 0.19 0.16 0.13 0.14 0.15 0.16 0.15 0.13 0.12 0.14 0.16 0.15 0.16 0.17 0.20 0.24 0.26 0.26 0.28 0.29 0.31 0.34
0.54 0.51 0.48 0.47 0.41 0.34 0.29 0.22 0.21 0.23 0.15 0.26 0.23 0.21 0.23 0.25 0.21 0.24 0.28 0.22 0.21 0.17 0.19 0.16 0.13 0.16 0.17 0.17 0.16 0.15 0.14 0.13 0.15 0.17 0.16 0.17 0.17 0.21 0.25 0.26 0.28 0.28 0.29 0.30 0.32
0.48 0.45 0.44 0.44 0.38 0.31 0.25 0.23 0.28 0.28 0.15 0.17 0.20 0.20 0.21 0.24 0.22 0.23 0.26 0.25 0.20 0.17 0.16 0.14 0.15 0.17 0.16 0.15 0.14 0.14 0.14 0.15 0.14 0.18 0.19 0.17 0.16 0.19 0.24 0.27 0.29 0.30 0.32 0.32 0.32
0.42 0.38 0.38 0.31 0.26 0.25 0.22 0.30 0.29 0.30 0.12 0.14 0.17 0.21 0.23 0.26 0.21 0.28 0.27 0.24 0.19 0.15 0.15 0.14 0.17 0.15 0.15 0.14 0.16 0.13 0.17 0.16 0.16 0.16 0.12 0.19 0.11 0.18 0.21 0.23 0.27 0.29 0.31 0.32 0.34
0.38 0.35 0.33 0.26 0.22 0.21 0.26 0.30 0.31 0.27 0.06 0.17 0.19 0.27 0.25 0.22 0.25 0.24 0.24 0.19 0.14 0.14 0.14 0.13 0.13 0.14 0.13 0.14 0.17 0.15 0.19 0.18 0.17 0.16 0.17 0.17 0.15 0.18 0.22 0.20 0.24 0.28 0.31 0.33 0.36
0.35 0.32 0.26 0.24 0.26 0.27 0.31 0.30 0.29 0.12 0.07 0.15 0.20 0.19 0.20 0.22 0.19 0.19 0.17 0.18 0.16 0.12 0.13 0.14 0.18 0.17 0.16 0.17 0.17 0.19 0.19 0.20 0.20 0.19 0.13 0.15 0.16 0.15 0.17 0.20 0.25 0.29 0.32 0.34 0.36
0.30 0.31 0.24 0.25 0.21 0.28 0.31 0.27 0.13 0.09 0.15 0.13 0.16 0.19 0.15 0.14 0.14 0.14 0.11 0.10 0.09 0.08 0.09 0.12 0.16 0.19 0.19 0.14 0.17 0.19 0.17 0.12 0.12 0.12 0.10 0.16 0.17 0.17 0.22 0.23 0.26 0.28 0.32 0.35 0.37
0.28 0.34 0.27 0.28 0.31 0.30 0.28 0.19 0.08 0.12 0.12 0.16 0.15 0.13 0.11 0.12 0.13 0.11 0.10 0.09 0.10 0.10 0.09 0.08 0.09 0.15 0.20 0.18 0.16 0.17 0.18 0.12 0.08 0.09 0.11 0.18 0.13 0.17 0.23 0.27 0.28 0.31 0.33 0.35 0.36
0.26 0.29 0.25 0.24 0.29 0.30 0.20 0.10 0.10 0.12 0.13 0.12 0.14 0.12 0.11 0.10 0.10 0.10 0.10 0.09 0.10 0.11 0.07 0.07 0.09 0.18 0.20 0.22 0.21 0.18 0.15 0.21 0.15 0.16 0.13 0.15 0.16 0.20 0.23 0.24 0.27 0.29 0.31 0.32 0.35
0.20 0.23 0.23 0.24 0.27 0.22 0.14 0.11 0.13 0.13 0.14 0.14 0.10 0.11 0.08 0.08 0.09 0.10 0.10 0.11 0.10 0.13 0.15 0.11 0.07 0.13 0.17 0.20 0.21 0.19 0.22 0.14 0.16 0.09 0.09 0.12 0.12 0.14 0.18 0.21 0.25 0.26 0.29 0.31 0.34
0.19 0.18 0.23 0.23 0.21 0.14 0.10 0.12 0.11 0.12 0.13 0.11 0.09 0.09 0.08 0.08 0.10 0.10 0.10 0.12 0.12 0.13 0.16 0.13 0.11 0.10 0.13 0.14 0.13 0.16 0.15 0.16 0.16 0.15 0.10 0.09 0.12 0.19 0.20 0.23 0.24 0.26 0.29 0.31 0.33
0.20 0.13 0.27 0.24 0.13 0.14 0.12 0.13 0.12 0.11 0.12 0.11 0.11 0.10 0.10 0.10 0.10 0.11 0.10 0.12 0.15 0.15 0.12 0.15 0.12 0.09 0.10 0.15 0.18 0.17 0.15 0.15 0.12 0.11 0.13 0.13 0.12 0.20 0.22 0.24 0.25 0.26 0.28 0.30 0.32
0.18 0.18 0.28 0.23 0.12 0.12 0.14 0.12 0.12 0.11 0.12 0.11 0.11 0.11 0.11 0.11 0.10 0.12 0.13 0.15 0.15 0.13 0.13 0.14 0.11 0.08 0.09 0.12 0.15 0.14 0.15 0.16 0.16 0.15 0.12 0.11 0.12 0.21 0.22 0.24 0.25 0.25 0.27 0.28 0.30
0.20 0.13 0.20 0.21 0.20 0.16 0.12 0.11 0.11 0.14 0.14 0.14 0.13 0.13 0.11 0.11 0.12 0.11 0.11 0.14 0.14 0.14 0.15 0.15 0.11 0.09 0.07 0.09 0.12 0.11 0.13 0.13 0.14 0.11 0.11 0.12 0.13 0.17 0.19 0.21 0.23 0.24 0.26 0.27 0.28
0.23 0.17 0.20 0.14 0.15 0.13 0.12 0.12 0.12 0.14 0.16 0.16 0.13 0.13 0.11 0.10 0.09 0.09 0.10 0.11 0.13 0.12 0.13 0.13 0.09 0.10 0.11 0.12 0.12 0.11 0.12 0.12 0.11 0.12 0.11 0.12 0.12 0.15 0.18 0.20 0.22 0.24 0.25 0.25 0.26
0.17 0.18 0.20 0.17 0.17 0.13 0.13 0.12 0.15 0.15 0.15 0.13 0.12 0.13 0.12 0.10 0.10 0.09 0.10 0.11 0.10 0.11 0.10 0.11 0.10 0.11 0.10 0.12 0.13 0.11 0.11 0.11 0.11 0.11 0.12 0.12 0.13 0.17 0.20 0.22 0.21 0.22 0.23 0.24 0.25
0.26 0.25 0.18 0.16 0.13 0.11 0.13 0.16 0.15 0.16 0.15 0.15 0.14 0.13 0.12 0.13 0.14 0.14 0.15 0.15 0.13 0.11 0.09 0.08 0.09 0.08 0.08 0.11 0.10 0.08 0.11 0.11 0.10 0.11 0.11 0.09 0.13 0.17 0.18 0.19 0.20 0.21 0.22 0.22 0.24
Wind_Speed
22 22 23 23 24 24 25 25 25 25 25 24 24 23 23 23 23 23 24 23 23 23 22 22 22 23 23 24 24 26 27 31 33 28 26 24 24 24 23 27 25 25 25 21 23
24 25 25 26 26 26 27 27 26 26 26 25 25 24 24 23 24 25 24 24 24 23 24 25 25 24 25 26 27 28 31 34 29 28 27 26 26 25 24 26 28 27 26 26 26
26 26 27 27 27 28 28 28 28 27 27 26 26 25 25 24 25 25 25 26 25 24 24 25 25 26 28 27 29 31 36 33 28 30 30 30 30 28 27 27 26 28 28 29 29
28 28 28 29 29 29 29 28 28 28 27 27 27 26 25 24 24 22 22 23 24 25 24 25 27 28 29 30 30 31 32 34 31 32 28 30 30 32 34 31 29 29 30 29 30
30 30 30 30 30 30 29 29 29 29 28 28 27 26 26 26 26 24 22 22 23 24 26 26 28 29 29 30 31 34 33 31 35 35 33 32 33 31 31 31 31 32 31 31 31
32 32 32 31 31 30 29 29 29 29 28 27 26 26 26 27 25 25 24 24 24 25 25 27 27 28 28 29 30 27 33 35 35 34 33 38 38 34 32 32 32 31 31 32 32
35 34 33 32 31 30 30 30 30 29 28 26 25 25 26 26 24 24 24 24 25 25 26 27 26 27 27 27 30 30 32 33 32 32 36 36 39 41 34 33 33 32 32 32 32
36 36 35 34 33 32 32 31 30 28 26 25 24 25 26 24 24 23 23 23 23 23 24 25 26 26 26 25 25 26 29 32 31 34 31 32 41 34 34 36 35 34 33 33 33
38 38 38 36 35 34 33 31 28 26 24 23 23 24 24 22 22 21 21 21 21 22 22 22 24 25 25 26 27 28 29 28 29 28 32 34 34 30 32 35 36 35 34 33 33
42 41 40 37 36 34 30 26 24 23 22 23 23 22 22 20 19 20 20 21 21 21 20 21 22 23 24 25 26 27 29 29 29 24 29 32 34 29 29 33 34 34 35 34 34
43 43 41 37 34 30 26 24 23 23 23 22 21 21 18 19 19 19 20 20 19 20 20 20 22 24 26 29 29 27 28 29 27 25 26 31 32 30 29 31 32 34 34 35 34
46 45 41 36 32 28 26 25 25 24 24 24 22 21 19 20 19 18 19 18 18 19 17 19 24 24 23 25 27 28 29 30 25 23 26 26 29 29 30 30 31 32 33 35 35
47 45 40 35 32 30 28 27 26 25 24 22 21 20 20 19 18 18 17 16 17 18 20 23 18 17 23 25 26 28 30 28 28 22 24 24 28 30 30 30 31 32 32 33 34
49 46 40 37 32 30 29 29 27 24 24 21 20 19 19 17 16 16 15 16 16 18 19 22 21 23 24 25 24 27 27 28 27 25 27 26 25 28 30 31 32 32 32 32 33
51 46 41 37 34 33 32 29 25 22 21 17 16 16 13 14 12 11 13 16 16 17 18 18 18 18 21 21 22 25 21 23 26 27 26 25 24 24 26 32 32 32 32 32 32
52 47 41 38 36 34 29 23 20 17 16 12 11 10 9 8 10 12 13 13 14 16 17 18 17 17 19 20 19 20 19 19 21 22 24 29 27 26 24 27 31 30 31 31 31
55 47 41 40 35 31 24 18 13 11 8 7 6 6 6 9 10 10 9 9 11 12 12 14 14 15 15 18 18 18 18 17 18 19 21 21 23 20 18 21 26 29 29 29 29
57 47 42 38 32 25 17 13 11 8 7 7 7 5 6 8 6 6 6 6 7 9 9 10 11 11 12 14 15 18 19 18 19 19 18 17 21 17 19 17 21 24 26 27 27
57 45 41 36 28 20 14 10 9 8 8 7 5 5 4 4 4 4 4 5 7 8 8 9 8 9 10 10 13 12 18 15 15 13 15 15 16 16 17 18 19 21 23 25 25
54 41 37 34 24 16 11 8 7 8 7 6 4 4 3 4 3 3 4 6 6 7 7 6 8 7 7 8 8 12 11 16 18 14 14 12 16 14 19 18 19 20 20 22 23
48 33 39 30 20 15 11 8 6 8 6 5 3 2 2 2 3 3 4 5 7 7 6 5 5 4 6 4 6 8 11 12 14 14 13 12 12 13 16 18 17 18 19 19 20
45 33 39 28 21 15 13 9 7 8 6 4 4 4 3 3 3 3 3 5 7 7 5 5 4 4 4 4 6 5 7 11 13 10 12 11 10 12 16 16 17 17 17 17 18
40 34 34 30 21 19 15 10 11 10 9 6 6 6 4 4 2 4 4 5 7 6 5 4 4 4 2 3 4 4 6 8 11 13 12 12 10 9 13 14 16 16 17 17 17
38 32 29 32 26 20 17 17 11 12 12 9 7 6 5 6 7 5 5 6 6 7 6 3 3 3 3 3 4 3 4 6 9 10 11 12 12 13 14 13 14 16 17 17 18
37 32 28 27 27 24 22 17 17 13 13 12 10 11 8 7 6 6 7 6 5 8 4 3 2 3 2 2 1 2 3 3 4 8 10 11 14 16 18 17 16 16 17 17 18
36 29 28 28 25 25 21 20 19 16 15 13 12 12 12 8 7 7 7 7 6 6 4 4 2 3 2 2 1 2 4 3 3 5 8 10 11 14 18 18 18 18 19 19 19
36 31 26 29 26 22 21 21 18 14 16 15 12 11 13 11 9 8 7 7 7 6 6 4 3 3 2 3 3 2 6 4 2 3 6 6 10 11 14 17 18 19 20 21 21
Wind_Direction
323 319 314 310 307 304 301 297 293 291 288 285 282 278 274 272 270 267 263 260 256 254 246 242 244 242 242 243 243 241 247 250 246 249 249 247 245 242 242 240 237 235 237 234 229
325 320 315 311 306 302 300 298 293 290 287 283 280 276 273 272 269 265 263 259 256 252 245 241 242 240 244 243 243 240 245 251 251 252 249 247 247 245 241 237 237 235 235 234 229
327 322 317 313 308 304 301 299 294 290 286 282 278 275 272 271 271 266 264 256 253 249 248 246 244 244 244 245 243 245 250 248 252 251 250 250 248 246 243 240 239 237 237 235 232
330 325 320 316 311 306 302 299 295 291 285 280 276 273 271 269 270 265 265 252 253 250 248 246 245 245 247 246 246 250 252 251 252 249 250 249 250 246 244 243 241 241 238 234 230
333 329 324 319 314 309 304 301 297 292 287 281 276 271 270 268 266 262 261 256 254 251 249 248 245 246 246 249 248 250 252 251 251 251 252 252 249 249 243 243 240 239 236 233 229
334 329 325 321 316 311 305 301 297 292 287 280 274 270 269 267 265 260 260 258 257 255 252 249 251 248 250 250 246 253 252 253 253 252 252 250 250 246 243 243 238 235 234 232 230
333 329 325 321 317 312 307 302 298 293 286 279 274 270 269 269 264 261 260 260 259 256 253 250 249 246 248 251 251 253 254 254 253 253 252 249 250 244 243 240 236 233 232 231 230
333 330 325 320 317 312 307 302 296 291 285 280 273 272 272 267 264 262 262 261 259 257 255 251 247 248 249 252 252 252 254 254 255 248 251 242 250 241 244 237 235 233 231 231 230
333 329 325 319 315 312 308 302 294 289 285 279 276 275 273 267 264 261 261 261 259 257 256 250 247 249 247 247 252 250 255 252 255 251 244 241 248 243 242 235 232 231 229 228 228
333 330 326 321 317 312 308 304 297 290 286 281 279 277 271 266 262 263 264 262 261 254 253 250 248 245 245 243 249 251 251 252 253 252 246 243 243 243 239 234 231 229 228 226 226
335 331 327 322 319 314 309 306 300 293 284 280 281 278 272 268 267 268 268 263 259 253 248 245 246 246 246 246 252 258 255 256 255 253 251 246 243 240 237 232 229 227 225 225 225
336 333 329 324 320 316 309 304 301 296 292 279 280 277 273 270 268 272 269 259 253 250 246 250 253 254 256 254 253 253 254 254 254 253 250 244 240 239 236 233 231 227 226 225 224
338 335 332 326 320 314 310 304 299 293 288 286 277 277 274 270 271 270 268 258 255 252 251 255 262 264 253 252 252 251 251 252 251 249 250 243 242 235 235 232 229 228 227 225 224
338 335 331 326 320 315 310 305 299 293 287 283 276 278 274 263 268 265 265 261 257 260 262 264 265 263 257 255 251 254 250 250 249 245 247 238 247 235 230 229 229 227 226 225 225
338 335 330 327 320 316 311 306 299 293 286 289 279 276 272 261 255 267 272 267 265 264 264 264 267 265 258 257 253 255 249 247 243 240 243 236 240 236 230 230 227 226 226 226 225
339 334 330 326 322 319 314 309 302 292 282 282 279 274 259 267 264 271 275 277 272 269 265 266 265 265 262 260 253 254 244 244 243 239 239 234 232 236 231 234 225 223 224 224 225
339 335 331 328 325 322 318 313 305 295 300 297 291 272 264 279 279 284 285 296 282 272 273 271 268 266 265 257 247 243 234 238 234 230 239 235 227 235 237 233 227 220 221 222 223
341 337 334 334 331 328 324 317 302 328 319 298 292 290 282 288 286 294 282 289 315 294 281 278 261 278 272 256 253 239 236 235 239 233 232 225 232 232 234 227 218 217 219 220 221
341 339 339 337 335 332 327 327 332 326 315 308 295 289 279 287 277 285 321 306 313 315 296 287 269 273 266 261 247 233 231 235 244 241 240 228 234 232 224 220 217 215 217 218 220
343 342 347 344 342 341 338 348 336 337 326 318 311 314 283 311 285 298 316 319 314 320 300 288 279 277 274 258 241 242 244 229 226 236 237 233 237 233 219 217 217 216 216 217 218
349 352 353 350 353 355 353 355 356 354 345 350 350 338 355 310 333 318 321 320 324 321 315 297 289 289 269 285 266 248 232 234 233 235 242 236 229 233 221 216 213 213 214 216 216
358 1 360 1 11 8 15 5 7 5 17 31 25 29 10 354 353 329 327 328 328 326 320 320 297 297 298 261 252 243 244 238 235 227 232 242 234 240 225 215 211 210 211 214 214
5 8 11 17 21 28 32 38 38 33 32 31 31 27 22 8 345 351 336 330 334 335 323 320 314 297 252 247 246 253 253 244 238 234 233 242 230 231 219 211 212 211 213 213 214
8 11 15 25 32 35 36 39 46 39 43 44 37 34 25 21 13 351 343 338 330 337 334 302 312 323 319 300 282 274 280 255 246 240 235 235 233 225 220 213 212 214 214 214 215
14 19 23 25 30 37 45 44 49 46 45 40 42 34 19 16 5 3 353 344 348 346 337 321 313 305 313 308 285 324 321 301 253 246 246 247 243 238 227 224 223 222 220 219 220
19 21 28 31 34 41 41 44 50 51 43 41 41 31 29 28 18 2 1 7 0 344 349 332 312 291 303 269 294 27 359 328 268 258 247 250 246 249 231 229 229 228 228 226 227
23 29 30 31 38 41 42 45 46 45 44 40 31 33 34 30 28 28 30 30 22 8 358 347 324 308 296 295 238 306 335 346 329 299 271 276 271 250 230 229 229 231 232 233 232